| time (UTC) | temp F | wind direction | speed MPH | gust MPH | rain 1hr in | rain 24hr in | rain mn in | humidity % | barometer mb |
| 20260505041521 | 75 | 0.0 | 0.0 | 0.00 | 0.00 | 0.00 | 20 | 1000.1 | |
| 20260505040021 | 77 | 0.0 | 0.0 | 0.00 | 0.00 | 0.00 | 19 | 999.9 | |
| 20260505034521 | 78 | 0.0 | 0.0 | 0.00 | 0.00 | 0.00 | 18 | 999.7 | |
| 20260505033031 | 79 | 0.0 | 0.0 | 0.00 | 0.00 | 0.00 | 18 | 999.6 | |
| 20260505031519 | 80 | 0.0 | 0.0 | 0.00 | 0.00 | 0.00 | 18 | 999.3 | |
| 20260505030019 | 81 | 0.0 | 0.0 | 0.00 | 0.00 | 0.00 | 18 | 999.2 | |
| 20260505024545 | 82 | 0.0 | 0.0 | 0.00 | 0.00 | 0.00 | 18 | 999.1 | |
| 20260505023017 | 83 | 0.0 | 0.0 | 0.00 | 0.00 | 0.00 | 18 | 998.9 | |
| 20260505021533 | 84 | 0.0 | 0.0 | 0.00 | 0.00 | 0.00 | 18 | 998.8 | |
| 20260505020017 | 85 | 0.0 | 0.0 | 0.00 | 0.00 | 0.00 | 18 | 998.8 | |
| 20260505014522 | 85 | 0.0 | 0.0 | 0.00 | 0.00 | 0.00 | 18 | 998.7 | |
| 20260505013015 | 86 | 0.0 | 0.0 | 0.00 | 0.00 | 0.00 | 18 | 998.6 | |
| 20260505011516 | 86 | 0.0 | 0.0 | 0.00 | 0.00 | 0.00 | 18 | 998.7 | |
| 20260505010013 | 87 | 0.0 | 0.0 | 0.00 | 0.00 | 0.00 | 18 | 998.9 | |
| 20260505004521 | 87 | 0.0 | 0.0 | 0.00 | 0.00 | 0.00 | 18 | 998.9 | |
| 20260505003011 | 87 | 0.0 | 0.0 | 0.00 | 0.00 | 0.00 | 18 | 999.0 | |
| 20260505001511 | 87 | 0.0 | 0.0 | 0.00 | 0.00 | 0.00 | 18 | 999.0 | |
| 20260505000011 | 87 | 0.0 | 0.0 | 0.00 | 0.00 | 0.00 | 18 | 999.0 | |
| 20260504234509 | 87 | 0.0 | 0.0 | 0.00 | 0.00 | 0.00 | 19 | 999.0 | |
| 20260504233007 | 87 | 0.0 | 0.0 | 0.00 | 0.00 | 0.00 | 19 | 999.0 | |
| 20260504231507 | 87 | 0.0 | 0.0 | 0.00 | 0.00 | 0.00 | 20 | 999.0 | |
| 20260504230005 | 87 | 0.0 | 0.0 | 0.00 | 0.00 | 0.00 | 21 | 998.9 | |
| 20260504224507 | 86 | 0.0 | 0.0 | 0.00 | 0.00 | 0.00 | 21 | 999.1 | |
| 20260504223001 | 86 | 0.0 | 0.0 | 0.00 | 0.00 | 0.00 | 22 | 999.1 | |
| 20260504221608 | 85 | 0.0 | 0.0 | 0.00 | 0.00 | 0.00 | 22 | 999.1 | |
| 20260504220129 | 85 | 0.0 | 0.0 | 0.00 | 0.00 | 0.00 | 23 | 999.3 | |
| 20260504214554 | 84 | 0.0 | 0.0 | 0.00 | 0.00 | 0.00 | 23 | 999.6 | |
| 20260504213102 | 83 | 0.0 | 0.0 | 0.00 | 0.00 | 0.00 | 23 | 1000.0 | |
| 20260504211546 | 83 | 0.0 | 0.0 | 0.00 | 0.00 | 0.00 | 23 | 1000.2 | |
| 20260504210044 | 82 | 0.0 | 0.0 | 0.00 | 0.00 | 0.00 | 24 | 1000.4 | |
| 20260504204557 | 81 | 0.0 | 0.0 | 0.00 | 0.00 | 0.00 | 24 | 1000.6 | |
| 20260504203038 | 80 | 0.0 | 0.0 | 0.00 | 0.00 | 0.00 | 25 | 1000.8 | |
| 20260504201534 | 79 | 0.0 | 0.0 | 0.00 | 0.00 | 0.00 | 26 | 1000.9 | |
| 20260504200032 | 78 | 0.0 | 0.0 | 0.00 | 0.00 | 0.00 | 28 | 1001.0 | |
| 20260504194531 | 77 | 0.0 | 0.0 | 0.00 | 0.00 | 0.00 | 28 | 1001.3 | |
| 20260504193024 | 76 | 0.0 | 0.0 | 0.00 | 0.00 | 0.00 | 29 | 1001.4 | |
| 20260504191520 | 75 | 0.0 | 0.0 | 0.00 | 0.00 | 0.00 | 30 | 1001.6 | |
| 20260504190019 | 74 | 0.0 | 0.0 | 0.00 | 0.00 | 0.00 | 31 | 1002.0 | |
| 20260504184516 | 72 | 0.0 | 0.0 | 0.00 | 0.00 | 0.00 | 32 | 1002.4 | |
| 20260504183008 | 71 | 0.0 | 0.0 | 0.00 | 0.00 | 0.00 | 33 | 1002.7 | |
| 20260504181504 | 69 | 0.0 | 0.0 | 0.00 | 0.00 | 0.00 | 34 | 1002.9 | |
| 20260504180100 | 68 | 0.0 | 0.0 | 0.00 | 0.00 | 0.00 | 35 | 1003.1 | |
| 20260504174557 | 66 | 0.0 | 0.0 | 0.00 | 0.00 | 0.00 | 36 | 1003.2 | |
| 20260504173058 | 64 | 0.0 | 0.0 | 0.00 | 0.00 | 0.00 | 37 | 1003.4 | |
| 20260504171556 | 63 | 0.0 | 0.0 | 0.00 | 0.00 | 0.00 | 37 | 1003.5 | |
| 20260504081600 | 59 | 0.0 | 0.0 | 0.00 | 0.00 | 0.00 | 22 | 1002.8 |